Location: South Tamworth Observatory
(43.8246°N, 71.3026°W)
Time: 02:44:20
(UTC-04:00)

Amateur Radio Satellites - All Passes

Search period start: 28 July 2016 02:14
Search period end: 29 July 2016 02:14
Location: South Tamworth Observatory, 43.8246°N, 71.3026°W

Satellite Date Start Highest point End Downlink Frequencies (MHz)
Time Altitude Azimuth
PCSat 28 Jul 02:16:56 02:19:34 13° 33° (NNE) 02:22:12 145.827
ITUPSAT 1 28 Jul 02:33:28 02:38:14 66° 258° (WSW) 02:43:02 437.325
Gurwin Techsat 1B 28 Jul 02:43:17 02:48:34 60° 101° (E) 02:53:48 435.225
STARS 28 Jul 02:44:01 02:45:10 11° 58° (ENE) 02:46:20 437.465
MOZHAYETS 4 28 Jul 02:44:49 02:48:26 23° 65° (ENE) 02:52:03
GONETS M04 28 Jul 02:52:30 03:01:21 84° 264° (W) 03:10:11
ITAMSAT 1 28 Jul 02:53:39 02:57:53 25° 94° (E) 03:02:05 435.822/435.867
Oscar 19 28 Jul 02:56:20 03:01:20 49° 290° (WNW) 03:06:18 437.125/150
Cosmos 2499 28 Jul 03:00:52 03:08:48 84° 81° (E) 03:16:07 435.465 / 435.565
DANDE 28 Jul 03:04:18 03:05:37 11° 91° (E) 03:06:52 436.750
ISS 28 Jul 03:05:31 03:08:48 80° 33° (NNE) 03:12:03 145.825
BEESAT 3 28 Jul 03:09:42 03:13:41 86° 59° (ENE) 03:17:38 437.485
BEESAT 2 28 Jul 03:17:26 03:21:24 57° 52° (NE) 03:25:20 435.950
JAS-2 28 Jul 03:25:09 03:26:37 11° 304° (NW) 03:28:06 435.910
SWISSCUBE 28 Jul 03:28:04 03:31:22 18° 268° (W) 03:34:41 437.505
KKS-1 28 Jul 03:40:05 03:44:30 77° 75° (ENE) 03:48:59 437.445
AIST 2 28 Jul 03:48:52 03:50:15 11° 33° (NNE) 03:51:39 435.215
BEESAT 28 Jul 03:50:52 03:52:52 12° 271° (W) 03:54:53 436.000
AO-7 28 Jul 03:52:48 04:00:32 40° 98° (E) 04:08:10 29.400- 29.500
PCSat 28 Jul 03:58:48 04:04:11 57° 55° (NE) 04:09:30 145.827
CUBESAT XI-V 28 Jul 04:06:45 04:10:07 20° 64° (ENE) 04:13:28 437.345
CUSAT 1 28 Jul 04:13:29 04:17:19 45° 281° (WNW) 04:20:23 437.405
STARS 28 Jul 04:16:26 04:20:49 88° 254° (WSW) 04:25:16 437.465
MOZHAYETS 4 28 Jul 04:21:00 04:25:22 40° 262° (W) 04:29:44
Gurwin Techsat 1B 28 Jul 04:24:13 04:28:03 20° 299° (WNW) 04:31:52 435.225
ITAMSAT 1 28 Jul 04:32:37 04:37:32 43° 291° (WNW) 04:42:24 435.822/435.867
DANDE 28 Jul 04:42:47 04:48:16 74° 280° (W) 04:52:20 436.750
ISS 28 Jul 04:43:04 04:44:49 14° 228° (SW) 04:46:34 145.825
GONETS M04 28 Jul 04:51:31 04:56:46 18° 284° (WNW) 05:02:02
RS-15 28 Jul 04:52:09 04:58:46 17° 95° (E) 05:05:32 29.354- 29.394
HORYU 2 28 Jul 04:54:32 04:57:55 21° 93° (E) 05:01:16 437.375
Cosmos 2499 28 Jul 04:55:51 05:00:43 18° 283° (WNW) 05:05:25 435.465 / 435.565
BEESAT 2 28 Jul 04:56:35 04:58:47 14° 250° (WSW) 05:00:58 435.950
O/OREOS (USA 219) 28 Jul 05:03:43 05:06:50 18° 52° (NE) 05:09:57 437.305
KKS-1 28 Jul 05:20:34 05:21:37 11° 271° (W) 05:22:40 437.445
AIST 2 28 Jul 05:25:26 05:29:36 61° 53° (NE) 05:33:44 435.215
CUBESAT XI-V 28 Jul 05:42:45 05:47:11 46° 261° (W) 05:51:37 437.345
PCSat 28 Jul 05:43:03 05:47:09 22° 253° (WSW) 05:51:12 145.827
BRITE-PL 28 Jul 05:44:51 05:48:41 22° 94° (E) 05:52:42 437.365/2234.400
AO-7 28 Jul 05:45:29 05:53:27 51° 298° (WNW) 06:01:22 29.400- 29.500
Cubesat XI-IV 28 Jul 05:55:38 05:58:53 16° 90° (E) 06:02:06 437.490
STRAND 1 28 Jul 05:57:52 06:01:40 21° 62° (ENE) 06:05:30 437.568
LilacSat-2 28 Jul 06:04:21 06:06:36 15° 91° (E) 06:08:51 437.200
CUTE-I 28 Jul 06:18:05 06:22:32 26° 94° (E) 06:26:55 437.470
Cosmos 2491 28 Jul 06:27:15 06:30:33 12° 52° (NE) 06:33:50 435.465 / 435.565
HORYU 2 28 Jul 06:30:26 06:34:38 40° 290° (WNW) 06:38:48 437.375
DOVE 4 28 Jul 06:31:14 06:34:13 15° 89° (E) 06:37:13 437.250
NOAA 15 28 Jul 06:34:39 06:39:44 47° 100° (E) 06:44:48 137.62
GOMX 1 28 Jul 06:41:40 06:46:24 38° 97° (E) 06:51:21 467.674
O/OREOS (USA 219) 28 Jul 06:42:10 06:46:37 57° 251° (WSW) 06:51:05 437.305
RS-15 28 Jul 06:57:28 07:08:50 73° 118° (ESE) 07:20:52 29.354- 29.394
SO-50 28 Jul 06:57:34 07:00:39 17° 110° (ESE) 07:03:44 436.795
NOAA 18 28 Jul 07:01:53 07:07:24 61° 102° (ESE) 07:12:50 137.9125
AIST 2 28 Jul 07:05:21 07:07:36 14° 250° (WSW) 07:09:50 435.215
BRITE-PL 28 Jul 07:22:42 07:27:17 45° 289° (WNW) 07:32:13 437.365/2234.400
Cubesat XI-IV 28 Jul 07:34:07 07:39:28 70° 287° (WNW) 07:44:45 437.490
STRAND 1 28 Jul 07:35:26 07:40:28 54° 260° (W) 07:45:32 437.568
CANX-2 28 Jul 07:36:56 07:39:10 14° 90° (E) 07:41:24 2200.000
LilacSat-2 28 Jul 07:37:27 07:41:08 42° 288° (WNW) 07:44:45 437.200
AO-7 28 Jul 07:40:47 07:44:17 13° 320° (NW) 07:47:46 29.400- 29.500
CUTE 1.7 + AOD 2 28 Jul 07:49:44 07:52:29 17° 91° (E) 07:55:14 437.475
CUTE-I 28 Jul 07:57:42 08:02:44 43° 291° (WNW) 08:07:44 437.470
YUBILEINY 28 Jul 07:58:48 08:03:34 16° 74° (ENE) 08:08:19 435.215
DOVE 4 28 Jul 08:07:12 08:12:21 73° 285° (WNW) 08:17:37 437.250
HO-68 28 Jul 08:08:27 08:15:01 36° 97° (E) 08:21:30 435.675
PRISM 28 Jul 08:10:01 08:13:56 48° 72° (ENE) 08:17:52 437.425
CINEMA 3 28 Jul 08:11:29 08:16:15 41° 97° (E) 08:20:56 145.822/145.860
NOAA 15 28 Jul 08:15:02 08:19:13 25° 297° (WNW) 08:23:25 137.62
GOMX 1 28 Jul 08:20:01 08:24:20 30° 292° (WNW) 08:28:53 467.674
Cosmos 2491 28 Jul 08:21:01 08:29:40 58° 76° (ENE) 08:38:16 435.465 / 435.565
SEEDS 28 Jul 08:26:15 08:29:56 29° 96° (E) 08:33:35 437.485
SO-50 28 Jul 08:35:47 08:40:38 68° 307° (NW) 08:45:29 436.795
COMPASS 1 28 Jul 08:36:08 08:39:38 26° 95° (E) 08:43:08 437.405
ANTELSAT 28 Jul 08:41:02 08:42:36 12° 58° (ENE) 08:44:10 437.575/2403.000
NOAA 18 28 Jul 08:43:29 08:47:34 22° 300° (WNW) 08:51:40 137.9125
FUNcube-1 28 Jul 08:46:28 08:47:25 11° 87° (E) 08:48:22 145.935
ZACube-1 28 Jul 08:47:20 08:49:03 12° 88° (E) 08:50:44 437.345
UWE-3 28 Jul 08:47:56 08:51:15 19° 91° (E) 08:54:31 435.000/436.395/437.385
Cosmos 2504 28 Jul 09:01:56 09:05:43 13° 73° (ENE) 09:09:29 435.465 / 435.565
AAUSAT CUBESAT 2 28 Jul 09:03:04 09:07:00 41° 98° (E) 09:10:53 437.432
CANX-2 28 Jul 09:11:15 09:15:22 53° 287° (WNW) 09:19:27 2200.000
RS-15 28 Jul 09:11:19 09:22:18 44° 325° (NW) 09:33:52 29.354- 29.394
CUBEBUG 2 28 Jul 09:11:29 09:16:05 49° 99° (E) 09:20:33 437.445
Cubesat XI-IV 28 Jul 09:17:16 09:18:34 11° 306° (NW) 09:19:51 437.490
TIGRISAT 28 Jul 09:19:45 09:23:33 25° 66° (ENE) 09:27:23 435.000
CUTE 1.7 + AOD 2 28 Jul 09:24:33 09:28:33 43° 289° (WNW) 09:32:32 437.475
Oscar 11 28 Jul 09:25:01 09:28:50 29° 96° (E) 09:32:36 145.826/435.025
UNISAT 6 28 Jul 09:35:54 09:40:11 38° 69° (ENE) 09:44:32 437.425
PRISM 28 Jul 09:47:16 09:49:31 14° 268° (W) 09:51:47 437.425
DOVE 4 28 Jul 09:47:48 09:49:11 11° 302° (WNW) 09:50:35 437.250
CINEMA 3 28 Jul 09:49:01 09:53:09 26° 294° (WNW) 09:57:16 145.822/145.860
YUBILEINY 28 Jul 09:50:02 09:58:48 79° 95° (E) 10:07:39 435.215
HUMSAT D 28 Jul 09:52:02 09:53:41 12° 89° (E) 09:55:20 437.325/437.525
HO-68 28 Jul 09:56:01 10:02:51 48° 295° (WNW) 10:09:38 435.675
SEEDS 28 Jul 10:02:07 10:05:31 25° 293° (WNW) 10:08:54 437.485
COMPASS 1 28 Jul 10:11:40 10:15:09 27° 292° (WNW) 10:18:38 437.405
ANTELSAT 28 Jul 10:13:53 10:18:32 89° 82° (E) 10:23:17 437.575/2403.000
Cosmos 2491 28 Jul 10:18:34 10:26:00 33° 277° (W) 10:33:27 435.465 / 435.565
SO-50 28 Jul 10:19:14 10:22:01 15° 327° (NNW) 10:24:47 436.795
FUNcube-1 28 Jul 10:19:45 10:24:15 77° 286° (WNW) 10:28:37 145.935
ZACube-1 28 Jul 10:21:21 10:25:51 70° 285° (WNW) 10:30:13 437.345
M-CUBED/EXP-1 PRIME 28 Jul 10:23:23 10:27:39 33° 101° (ESE) 10:31:52 437.505
UWE-3 28 Jul 10:23:32 10:27:57 44° 289° (WNW) 10:32:13 435.000/436.395/437.385
NANOSAT C BR1 28 Jul 10:32:26 10:35:43 22° 66° (ENE) 10:39:02 145.865
DUCHIFAT 1 28 Jul 10:36:05 10:39:24 23° 66° (ENE) 10:42:45 145.980
AAUSAT CUBESAT 2 28 Jul 10:39:23 10:42:10 18° 295° (WNW) 10:44:58 437.432
BUGSAT 1 28 Jul 10:47:09 10:49:12 14° 62° (ENE) 10:51:17 437.445
AUBIESAT-1 28 Jul 10:48:19 10:52:50 48° 104° (ESE) 10:57:17 437.475
Cosmos 2504 28 Jul 10:48:38 10:57:24 67° 93° (E) 11:06:06 435.465 / 435.565
CUBEBUG 2 28 Jul 10:48:56 10:52:19 20° 296° (WNW) 10:55:39 437.445
DELFI C3 28 Jul 10:51:11 10:55:06 67° 285° (WNW) 10:58:59 145.870
QB50P1 28 Jul 10:54:45 10:58:42 39° 70° (ENE) 11:02:42 145.935-145.965
TIGRISAT 28 Jul 10:55:44 11:00:01 37° 263° (W) 11:04:24 435.000
POPSAT HIP 1 28 Jul 11:01:13 11:05:15 45° 72° (ENE) 11:09:22 437.405
Oscar 11 28 Jul 11:01:16 11:04:52 26° 293° (WNW) 11:08:27 145.826/435.025
UNISAT 6 28 Jul 11:13:13 11:16:58 24° 266° (W) 11:20:49 437.425
QB50P2 28 Jul 11:22:14 11:26:30 83° 73° (ENE) 11:30:48 145.880/145.840
POLYITAN 1 28 Jul 11:24:52 11:29:07 85° 76° (ENE) 11:33:27 437.675
HUMSAT D 28 Jul 11:25:35 11:29:46 61° 285° (WNW) 11:33:49 437.325/437.525
RS-15 28 Jul 11:29:19 11:39:08 27° 358° (N) 11:49:11 29.354- 29.394
DX 1 28 Jul 11:39:00 11:40:59 13° 90° (E) 11:42:57 434.975-435.025
AISAT 28 Jul 11:42:28 11:45:51 21° 94° (E) 11:49:13 437.250
HO-68 28 Jul 11:47:50 11:48:50 10° 316° (NW) 11:49:49 435.675
YUBILEINY 28 Jul 11:49:44 11:56:37 25° 297° (WNW) 12:03:35 435.215
UKube-1 28 Jul 11:50:15 11:52:20 13° 91° (E) 11:54:25 .
JAS-2 28 Jul 11:50:38 11:56:22 52° 71° (ENE) 12:01:36 435.910
50 SAT 28 Jul 11:54:12 11:57:11 24° 96° (E) 12:00:08 437.505
M-CUBED/EXP-1 PRIME 28 Jul 11:57:55 12:02:03 31° 298° (WNW) 12:06:11 437.505
NANOSAT C BR1 28 Jul 12:07:22 12:11:15 35° 263° (W) 12:15:11 145.865
DUCHIFAT 1 28 Jul 12:11:04 12:14:55 34° 263° (W) 12:18:49 145.980
SPROUT 28 Jul 12:19:59 12:23:29 24° 94° (E) 12:26:57 437.525
BUGSAT 1 28 Jul 12:20:03 12:24:05 60° 259° (W) 12:28:13 437.445
ESTCUBE 1 28 Jul 12:21:44 12:26:16 88° 106° (ESE) 12:30:45 437.505/2401.250
AUBIESAT-1 28 Jul 12:23:23 12:26:57 22° 301° (WNW) 12:30:30 437.475
Gurwin Techsat 1B 28 Jul 12:28:34 12:31:44 16° 59° (ENE) 12:34:55 435.225
CUBEBUG 1 28 Jul 12:30:56 12:35:22 75° 103° (ESE) 12:39:46 437.445
QB50P1 28 Jul 12:31:33 12:34:38 19° 267° (W) 12:37:45 145.935-145.965
AO-85 28 Jul 12:32:03 12:35:31 18° 109° (ESE) 12:38:54 145.980
VELOX 1 28 Jul 12:33:03 12:37:30 67° 103° (ESE) 12:41:55 145.980
Oscar 19 28 Jul 12:35:44 12:40:22 36° 67° (ENE) 12:45:02 437.125/150
POPSAT HIP 1 28 Jul 12:38:29 12:41:17 17° 268° (W) 12:44:06 437.405
Cosmos 2504 28 Jul 12:43:50 12:51:25 31° 293° (WNW) 12:58:58 435.465 / 435.565
AIST 1 28 Jul 12:51:29 12:55:19 34° 91° (E) 12:59:10
AO-7 28 Jul 13:05:21 13:09:55 16° 43° (NE) 13:14:29 29.400- 29.500
TISAT 1 28 Jul 13:10:59 13:14:08 20° 93° (E) 13:17:16 437.305
DX 1 28 Jul 13:13:15 13:17:35 64° 287° (WNW) 13:21:55 434.975-435.025
AISAT 28 Jul 13:18:18 13:22:28 40° 290° (WNW) 13:26:37 437.250
UKube-1 28 Jul 13:24:29 13:28:46 60° 287° (WNW) 13:33:01 .
50 SAT 28 Jul 13:27:53 13:30:43 22° 292° (WNW) 13:33:34 437.505
JAS-2 28 Jul 13:37:09 13:41:43 23° 266° (W) 13:45:59 435.910
RS-15 28 Jul 13:44:52 13:56:15 40° 32° (NNE) 14:07:37 29.354- 29.394
SWISSCUBE 28 Jul 13:49:45 13:51:19 11° 88° (E) 13:52:53 437.505
Cosmos 2499 28 Jul 13:50:11 13:54:01 14° 74° (ENE) 13:57:48 435.465 / 435.565
SPROUT 28 Jul 13:55:35 13:59:28 33° 291° (WNW) 14:03:20 437.525
ESTCUBE 1 28 Jul 14:01:06 14:02:22 11° 301° (WNW) 14:03:39 437.505/2401.250
GONETS M04 28 Jul 14:01:12 14:07:33 23° 79° (E) 14:13:57
Gurwin Techsat 1B 28 Jul 14:05:43 14:11:02 78° 257° (WSW) 14:16:23 435.225
CUBEBUG 1 28 Jul 14:09:11 14:11:03 13° 300° (WNW) 14:12:55 437.445
BEESAT 28 Jul 14:09:40 14:12:46 17° 91° (E) 14:15:52 436.000
AO-85 28 Jul 14:10:09 14:15:31 75° 306° (NW) 14:20:39 145.980
VELOX 1 28 Jul 14:11:06 14:13:26 14° 299° (WNW) 14:15:45 145.980
ITAMSAT 1 28 Jul 14:12:38 14:17:34 44° 68° (ENE) 14:22:30 435.822/435.867
Oscar 19 28 Jul 14:15:19 14:19:44 29° 265° (W) 14:24:11 437.125/150
AIST 1 28 Jul 14:29:46 14:33:00 21° 289° (WNW) 14:36:16
ITUPSAT 1 28 Jul 14:32:57 14:37:03 28° 95° (E) 14:41:08 437.325
CUSAT 1 28 Jul 14:43:14 14:46:15 80° 261° (W) 14:50:00 437.405
TISAT 1 28 Jul 14:45:58 14:49:55 38° 290° (WNW) 14:53:51 437.305
AO-7 28 Jul 14:52:52 15:01:02 61° 65° (ENE) 15:09:14 29.400- 29.500
DANDE 28 Jul 15:19:28 15:22:05 76° 79° (E) 15:24:58 436.750
SWISSCUBE 28 Jul 15:24:55 15:29:42 80° 286° (WNW) 15:34:26 437.505
SO-50 28 Jul 15:26:13 15:30:05 25° 41° (NE) 15:33:51 436.795
KKS-1 28 Jul 15:31:19 15:33:31 13° 90° (E) 15:35:43 437.445
Cosmos 2499 28 Jul 15:36:45 15:45:32 68° 93° (E) 15:54:04 435.465 / 435.565
BEESAT 28 Jul 15:46:14 15:50:54 55° 288° (WNW) 15:55:31 436.000
ITAMSAT 1 28 Jul 15:52:56 15:57:11 25° 266° (W) 16:01:28 435.822/435.867
AO-85 28 Jul 15:53:27 15:56:48 17° 325° (NW) 16:00:02 145.980
HORYU 2 28 Jul 15:53:47 15:57:22 24° 65° (ENE) 16:00:57 437.375
GONETS M04 28 Jul 15:54:42 16:03:23 77° 280° (W) 16:12:10
PHONESAT 2.4 28 Jul 15:56:50 15:57:52 11° 151° (SSE) 15:58:53 2401.200-2431.200
RS-15 28 Jul 15:57:50 16:10:15 84° 239° (WSW) 16:22:29 29.354- 29.394
STARS 28 Jul 16:05:44 16:08:23 15° 91° (E) 16:11:01 437.465
ITUPSAT 1 28 Jul 16:10:38 16:14:54 33° 293° (WNW) 16:19:09 437.325
MOZHAYETS 4 28 Jul 16:14:23 16:18:44 41° 98° (E) 16:23:02
NOAA 15 28 Jul 16:19:56 16:22:17 13° 56° (ENE) 16:24:38 137.62
AO-7 28 Jul 16:46:56 16:54:12 33° 264° (W) 17:01:33 29.400- 29.500
LilacSat-2 28 Jul 16:49:43 16:50:12 10° 61° (ENE) 16:50:43 437.200
NOAA 18 28 Jul 16:51:03 16:55:01 21° 59° (ENE) 16:59:00 137.9125
BRITE-PL 28 Jul 16:58:02 17:01:21 24° 67° (ENE) 17:04:43 437.365/2234.400
SWISSCUBE 28 Jul 17:05:45 17:06:40 11° 303° (WNW) 17:07:35 437.505
KKS-1 28 Jul 17:06:03 17:10:31 64° 287° (WNW) 17:14:56 437.445
SO-50 28 Jul 17:06:20 17:10:51 51° 241° (WSW) 17:15:11 436.795
Cubesat XI-IV 28 Jul 17:18:21 17:23:02 31° 65° (ENE) 17:27:43 437.490
HORYU 2 28 Jul 17:29:34 17:33:43 37° 262° (W) 17:37:54 437.375
PHONESAT 2.4 28 Jul 17:31:01 17:33:49 32° 167° (SSE) 17:36:37 2401.200-2431.200
Cosmos 2499 28 Jul 17:31:48 17:39:17 30° 293° (WNW) 17:46:37 435.465 / 435.565
CUBESAT XI-V 28 Jul 17:37:43 17:42:02 38° 97° (E) 17:46:20 437.345
DOVE 4 28 Jul 17:38:54 17:41:22 15° 61° (ENE) 17:43:56 437.250
STARS 28 Jul 17:40:43 17:45:04 54° 288° (WNW) 17:49:24 437.465
CUTE-I 28 Jul 17:40:56 17:46:05 49° 70° (ENE) 17:51:15 437.470
GOMX 1 28 Jul 17:51:47 17:55:42 39° 70° (ENE) 17:59:48 467.674
MOZHAYETS 4 28 Jul 17:52:09 17:55:38 22° 295° (WNW) 17:59:06
NOAA 15 28 Jul 17:56:01 18:01:16 86° 75° (ENE) 18:06:32 137.62
GONETS M04 28 Jul 17:56:31 18:01:52 17° 303° (WNW) 18:07:16
RS-15 28 Jul 18:12:12 18:20:54 23° 261° (W) 18:29:31 29.354- 29.394
LilacSat-2 28 Jul 18:20:03 18:23:55 73° 257° (WSW) 18:27:50 437.200
NOAA 18 28 Jul 18:29:40 18:35:10 65° 257° (WSW) 18:40:43 137.9125
CANX-2 28 Jul 18:31:38 18:33:41 13° 62° (ENE) 18:35:44 2200.000
BRITE-PL 28 Jul 18:36:09 18:39:46 29° 264° (W) 18:43:27 437.365/2234.400
BEESAT 3 28 Jul 18:38:30 18:42:25 81° 305° (NW) 18:46:23 437.485
HO-68 28 Jul 18:38:48 18:44:59 32° 60° (ENE) 18:51:10 435.675
PCSat 28 Jul 18:41:54 18:46:53 39° 112° (ESE) 18:51:55 145.827
CUTE 1.7 + AOD 2 28 Jul 18:44:10 18:46:43 16° 64° (ENE) 18:49:16 437.475
BEESAT 2 28 Jul 18:47:45 18:51:40 68° 122° (ESE) 18:55:39 435.950
Cubesat XI-IV 28 Jul 18:58:01 19:02:59 37° 263° (W) 19:07:59 437.490
PHONESAT 2.4 28 Jul 19:07:05 19:10:02 43° 184° (S) 19:12:59 2401.200-2431.200
CINEMA 3 28 Jul 19:14:13 19:18:30 40° 70° (ENE) 19:22:58 145.822/145.860
DOVE 4 28 Jul 19:14:15 19:18:30 61° 260° (W) 19:23:03 437.250
CUBESAT XI-V 28 Jul 19:15:33 19:19:12 24° 294° (WNW) 19:22:51 437.345
O/OREOS (USA 219) 28 Jul 19:19:02 19:21:10 13° 98° (E) 19:23:17 437.305
SEEDS 28 Jul 19:19:20 19:22:48 25° 68° (ENE) 19:26:17 437.485
CUTE-I 28 Jul 19:22:07 19:26:22 24° 267° (W) 19:30:38 437.470
COMPASS 1 28 Jul 19:28:21 19:31:36 22° 67° (ENE) 19:34:51 437.405
GOMX 1 28 Jul 19:31:04 19:34:02 19° 269° (W) 19:37:06 467.674
Cosmos 2491 28 Jul 19:34:38 19:37:07 11° 71° (ENE) 19:39:37 435.465 / 435.565
NOAA 15 28 Jul 19:39:39 19:41:43 12° 272° (W) 19:43:47 137.62
FUNcube-1 28 Jul 19:43:11 19:44:48 12° 59° (ENE) 19:46:26 145.935
STRAND 1 28 Jul 19:44:30 19:49:25 46° 99° (E) 19:54:18 437.568
ZACube-1 28 Jul 19:44:31 19:46:36 13° 60° (ENE) 19:48:41 437.345
UWE-3 28 Jul 19:46:08 19:49:29 20° 64° (ENE) 19:52:52 435.000/436.395/437.385
ISS 28 Jul 19:48:03 19:49:00 11° 131° (SE) 19:49:57 145.825
AAUSAT CUBESAT 2 28 Jul 19:54:29 19:58:13 33° 70° (ENE) 20:01:57 437.432
YUBILEINY 28 Jul 19:58:48 20:07:07 42° 71° (ENE) 20:15:19 435.215
CANX-2 28 Jul 20:04:46 20:09:01 65° 259° (W) 20:13:17 2200.000
CUBEBUG 2 28 Jul 20:10:20 20:14:46 47° 71° (ENE) 20:19:19 437.445
CUTE 1.7 + AOD 2 28 Jul 20:17:58 20:22:08 53° 260° (W) 20:26:20 437.475
BEESAT 3 28 Jul 20:19:00 20:20:46 13° 324° (NW) 20:22:32 437.485
Oscar 11 28 Jul 20:21:02 20:24:43 28° 68° (ENE) 20:28:26 145.826/435.025
HO-68 28 Jul 20:25:20 20:32:21 56° 259° (WSW) 20:39:26 435.675
PCSat 28 Jul 20:25:23 20:30:20 35° 311° (NW) 20:35:19 145.827
BEESAT 2 28 Jul 20:27:22 20:29:56 16° 321° (NW) 20:32:32 435.950
Cosmos 2504 28 Jul 20:41:11 20:47:44 26° 64° (ENE) 20:53:54 435.465 / 435.565
PHONESAT 2.4 28 Jul 20:43:42 20:46:12 23° 200° (SSW) 20:48:42 2401.200-2431.200
HUMSAT D 28 Jul 20:45:09 20:46:44 12° 61° (ENE) 20:48:19 437.325/437.525
CINEMA 3 28 Jul 20:52:15 20:55:48 22° 268° (W) 20:59:30 145.822/145.860
SEEDS 28 Jul 20:54:40 20:58:23 30° 264° (W) 21:02:08 437.485
O/OREOS (USA 219) 28 Jul 20:55:34 20:59:59 63° 296° (WNW) 21:04:27 437.305
AO-85 28 Jul 21:01:31 21:04:59 21° 39° (NE) 21:08:13 145.980
AIST 2 28 Jul 21:02:01 21:06:07 84° 120° (ESE) 21:10:17 435.215
COMPASS 1 28 Jul 21:03:12 21:06:59 33° 263° (W) 21:10:48 437.405
M-CUBED/EXP-1 PRIME 28 Jul 21:11:03 21:14:43 44° 65° (ENE) 21:18:43 437.505
FUNcube-1 28 Jul 21:15:47 21:20:20 86° 255° (WSW) 21:24:57 145.935
ZACube-1 28 Jul 21:17:41 21:22:14 78° 258° (WSW) 21:26:52 437.345
UWE-3 28 Jul 21:21:08 21:25:33 48° 261° (W) 21:30:07 435.000/436.395/437.385
ISS 28 Jul 21:21:41 21:24:56 83° 150° (SSE) 21:28:13 145.825
Cosmos 2491 28 Jul 21:23:31 21:32:04 64° 92° (E) 21:40:38 435.465 / 435.565
STRAND 1 28 Jul 21:24:15 21:28:19 24° 297° (WNW) 21:32:21 437.568
PRISM 28 Jul 21:25:05 21:29:10 67° 102° (ESE) 21:33:15 437.425
AAUSAT CUBESAT 2 28 Jul 21:30:32 21:33:46 22° 266° (W) 21:37:00 437.432
AUBIESAT-1 28 Jul 21:35:28 21:39:20 68° 68° (ENE) 21:43:31 437.475
DELFI C3 28 Jul 21:37:51 21:41:50 82° 76° (ENE) 21:45:49 145.870
CUBEBUG 2 28 Jul 21:48:20 21:51:38 19° 269° (W) 21:55:01 437.445
ESTCUBE 1 28 Jul 21:49:21 21:50:38 11° 59° (ENE) 21:51:55 437.505/2401.250
YUBILEINY 28 Jul 21:55:42 22:03:58 46° 272° (W) 22:12:11 435.215
Oscar 11 28 Jul 21:57:01 22:00:48 28° 265° (W) 22:04:35 145.826/435.025
ANTELSAT 28 Jul 22:05:30 22:08:36 18° 91° (E) 22:11:38 437.575/2403.000
HUMSAT D 28 Jul 22:17:26 22:21:44 77° 257° (WSW) 22:26:05 437.325/437.525
Cosmos 2504 28 Jul 22:33:51 22:41:57 69° 267° (W) 22:49:26 435.465 / 435.565
50 SAT 28 Jul 22:33:54 22:36:01 15° 65° (ENE) 22:38:08 437.505
DX 1 28 Jul 22:36:01 22:38:21 14° 61° (ENE) 22:40:41 434.975-435.025
AISAT 28 Jul 22:41:15 22:44:39 22° 65° (ENE) 22:48:05 437.250
AO-85 28 Jul 22:41:31 22:45:50 56° 240° (WSW) 22:49:47 145.980
AIST 2 28 Jul 22:42:44 22:45:11 15° 323° (NW) 22:47:38 435.215
TIGRISAT 28 Jul 22:45:43 22:50:07 42° 98° (E) 22:54:25 435.000
UKube-1 28 Jul 22:46:18 22:48:40 15° 61° (ENE) 22:51:01 .
M-CUBED/EXP-1 PRIME 28 Jul 22:47:07 22:49:33 16° 264° (W) 22:52:08 437.505
ISS 28 Jul 22:58:52 23:01:40 25° 346° (NNW) 23:04:28 145.825
AIST 1 28 Jul 22:58:56 23:00:01 11° 65° (ENE) 23:01:07
PRISM 28 Jul 23:02:16 23:03:57 12° 299° (WNW) 23:05:38 437.425
UNISAT 6 28 Jul 23:02:33 23:07:12 68° 101° (ESE) 23:11:42 437.425
QB50P2 28 Jul 23:07:43 23:09:34 12° 90° (E) 23:11:24 145.880/145.840
POLYITAN 1 28 Jul 23:10:17 23:12:13 13° 90° (E) 23:14:09 437.675
AUBIESAT-1 28 Jul 23:13:30 23:14:22 11° 268° (W) 23:15:14 437.475
SPROUT 28 Jul 23:15:00 23:18:18 22° 66° (ENE) 23:21:38 437.525
Cosmos 2491 28 Jul 23:22:05 23:29:30 30° 294° (WNW) 23:37:00 435.465 / 435.565
ESTCUBE 1 28 Jul 23:22:15 23:26:44 88° 252° (WSW) 23:31:16 437.505/2401.250
CUBEBUG 1 28 Jul 23:27:55 23:32:13 72° 75° (ENE) 23:36:33 437.445
VELOX 1 28 Jul 23:31:23 23:35:44 69° 74° (ENE) 23:40:07 145.980
ANTELSAT 28 Jul 23:41:07 23:45:36 50° 288° (WNW) 23:49:59 437.575/2403.000
NANOSAT C BR1 28 Jul 23:50:11 23:54:03 32° 97° (E) 23:57:52 145.865
DUCHIFAT 1 28 Jul 23:53:34 23:57:26 32° 97° (E) 00:01:15 145.980
BUGSAT 1 29 Jul 00:01:16 00:04:13 18° 92° (E) 00:07:09 437.445
TISAT 1 29 Jul 00:04:14 00:07:10 19° 64° (ENE) 00:10:07 437.305
50 SAT 29 Jul 00:05:52 00:09:20 40° 261° (W) 00:12:49 437.505
GONETS M04 29 Jul 00:09:24 00:12:50 12° 52° (NE) 00:16:15
DX 1 29 Jul 00:09:46 00:14:02 62° 258° (WSW) 00:18:21 434.975-435.025
QB50P1 29 Jul 00:13:25 00:17:41 61° 100° (E) 00:21:55 145.935-145.965
AISAT 29 Jul 00:16:51 00:20:54 37° 262° (W) 00:25:02 437.250
UKube-1 29 Jul 00:19:58 00:24:13 60° 258° (WSW) 00:28:30 .
POPSAT HIP 1 29 Jul 00:20:02 00:24:20 71° 101° (ESE) 00:28:37 437.405
TIGRISAT 29 Jul 00:22:59 00:26:31 22° 296° (WNW) 00:29:59 435.000
Cosmos 2504 29 Jul 00:30:50 00:33:32 12° 288° (WNW) 00:36:11 435.465 / 435.565
AIST 1 29 Jul 00:33:50 00:38:11 76° 264° (W) 00:42:32
ISS 29 Jul 00:36:16 00:38:50 21° 6° (N) 00:41:24 145.825
UNISAT 6 29 Jul 00:40:46 00:43:19 15° 299° (WNW) 00:45:51 437.425
QB50P2 29 Jul 00:41:32 00:45:47 62° 286° (WNW) 00:50:00 145.880/145.840
JAS-2 29 Jul 00:42:08 00:47:06 38° 98° (E) 00:52:27 435.910
POLYITAN 1 29 Jul 00:44:10 00:48:26 61° 287° (WNW) 00:52:38 437.675
Oscar 19 29 Jul 00:48:19 00:49:34 11° 87° (E) 00:50:49 437.125/150
SPROUT 29 Jul 00:50:06 00:54:03 36° 263° (W) 00:58:02 437.525
SWISSCUBE 29 Jul 00:56:49 00:59:56 18° 61° (ENE) 01:03:03 437.505
CUBEBUG 1 29 Jul 01:07:54 01:09:00 11° 271° (W) 01:10:07 437.445
VELOX 1 29 Jul 01:11:05 01:12:40 12° 271° (W) 01:14:16 145.980
BEESAT 29 Jul 01:17:07 01:20:56 24° 64° (ENE) 01:24:45 436.000
BEESAT 3 29 Jul 01:18:09 01:20:12 14° 37° (NE) 01:22:14 437.485
NANOSAT C BR1 29 Jul 01:26:09 01:29:38 24° 293° (WNW) 01:33:05 145.865
Cosmos 2499 29 Jul 01:28:02 01:34:13 25° 64° (ENE) 01:40:03 435.465 / 435.565
BEESAT 2 29 Jul 01:28:48 01:29:50 11° 33° (NNE) 01:30:51 435.950
DUCHIFAT 1 29 Jul 01:29:32 01:32:58 24° 293° (WNW) 01:36:23 145.980
BUGSAT 1 29 Jul 01:35:44 01:39:47 42° 289° (WNW) 01:43:48 437.445
TISAT 1 29 Jul 01:38:30 01:42:30 43° 261° (W) 01:46:33 437.305
ITUPSAT 1 29 Jul 01:40:45 01:45:11 39° 69° (ENE) 01:49:38 437.325
PCSat 29 Jul 01:46:53 01:48:22 11° 29° (NNE) 01:49:51 145.827
QB50P1 29 Jul 01:50:41 01:52:58 14° 298° (WNW) 01:55:15 145.935-145.965
POPSAT HIP 1 29 Jul 01:57:42 01:59:33 13° 299° (WNW) 02:01:23 437.405
